Temp
-6 -6 -5 -5 -5 -6 -6 -5 -5 -5 -5 -5 -5 -5 -5 -4 -4 -3 -3 -3 -4 -3 -3 -3 -3 -4 -3 -4 -4 -4 -6 -4 -5 -5 -3 -3 -4 -4 -4 -4 -4 -4 -3 -4 -4
-6 -6 -6 -6 -6 -6 -6 -6 -5 -5 -5 -5 -5 -5 -5 -4 -4 -4 -3 -4 -4 -3 -3 -3 -3 -4 -3 -3 -4 -4 -5 -6 -5 -5 -4 -5 -5 -4 -4 -4 -4 -3 -4 -3 -3
-6 -6 -6 -6 -6 -6 -6 -6 -5 -6 -5 -5 -5 -5 -5 -4 -4 -4 -3 -4 -4 -3 -3 -3 -3 -3 -3 -3 -3 -3 -3 -6 -4 -4 -4 -5 -5 -5 -5 -6 -3 -3 -3 -3 -3
-6 -6 -6 -6 -6 -6 -6 -6 -6 -6 -5 -5 -5 -5 -5 -4 -4 -4 -4 -4 -4 -4 -3 -3 -3 -2 -2 -2 -3 -3 -4 -5 -4 -4 -4 -5 -5 -6 -3 -4 -4 -3 -3 -3 -3
-6 -6 -6 -6 -6 -6 -6 -6 -6 -6 -5 -5 -5 -5 -5 -4 -4 -4 -4 -4 -4 -4 -3 -3 -3 -3 -2 -3 -4 -3 -5 -5 -5 -4 -3 -3 -3 -5 -4 -3 -3 -3 -3 -3 -3
-6 -6 -6 -6 -6 -6 -6 -6 -6 -6 -5 -5 -5 -5 -5 -5 -4 -4 -4 -3 -3 -4 -4 -3 -3 -3 -3 -3 -4 -4 -4 -5 -4 -4 -4 -3 -4 -4 -4 -3 -3 -3 -3 -3 -3
-6 -6 -6 -6 -6 -6 -6 -6 -6 -6 -5 -5 -5 -5 -5 -5 -5 -4 -4 -4 -3 -3 -3 -3 -3 -3 -3 -4 -4 -4 -4 -3 -4 -4 -4 -4 -4 -4 -4 -4 -3 -3 -3 -3 -3
-7 -7 -6 -6 -6 -6 -6 -6 -6 -6 -5 -5 -5 -5 -5 -5 -5 -5 -4 -4 -4 -4 -3 -3 -3 -3 -3 -3 -4 -3 -4 -4 -4 -4 -3 -4 -4 -4 -4 -5 -4 -4 -3 -3 -3
-7 -7 -6 -6 -6 -6 -6 -6 -6 -6 -5 -5 -5 -5 -5 -5 -5 -5 -4 -4 -4 -4 -4 -3 -3 -3 -2 -3 -3 -4 -3 -4 -4 -5 -5 -4 -4 -5 -5 -5 -4 -4 -4 -4 -4
-7 -7 -6 -6 -6 -6 -6 -6 -6 -6 -6 -5 -5 -5 -5 -5 -5 -5 -4 -4 -4 -5 -4 -4 -4 -4 -3 -4 -4 -5 -5 -5 -5 -5 -5 -6 -5 -4 -5 -4 -4 -4 -4 -4 -4
-7 -7 -6 -6 -6 -6 -6 -6 -6 -6 -6 -5 -5 -5 -5 -5 -5 -5 -4 -4 -5 -5 -4 -5 -5 -4 -3 -3 -4 -4 -4 -5 -5 -5 -6 -6 -6 -4 -4 -4 -4 -4 -4 -4 -4
-6 -7 -6 -6 -6 -6 -6 -6 -6 -6 -6 -5 -5 -5 -5 -5 -5 -5 -4 -5 -4 -3 -4 -5 -4 -3 -4 -5 -4 -4 -5 -5 -4 -5 -5 -6 -6 -6 -4 -4 -4 -3 -4 -4 -4
-6 -7 -6 -6 -6 -6 -6 -6 -6 -6 -5 -5 -5 -5 -5 -5 -5 -5 -5 -4 -4 -3 -4 -4 -3 -3 -5 -4 -4 -4 -4 -6 -5 -4 -5 -6 -6 -5 -5 -4 -4 -4 -4 -3 -4
-6 -7 -6 -6 -6 -6 -6 -6 -6 -6 -6 -5 -5 -5 -5 -5 -4 -4 -4 -4 -6 -5 -5 -3 -4 -5 -6 -4 -4 -4 -4 -6 -5 -5 -5 -6 -6 -6 -6 -4 -5 -4 -4 -4 -4
-7 -7 -6 -6 -6 -6 -6 -6 -6 -6 -6 -6 -5 -5 -5 -5 -4 -4 -4 -4 -5 -4 -4 -4 -4 -6 -5 -5 -5 -5 -6 -6 -5 -5 -5 -5 -5 -5 -5 -5 -6 -5 -4 -4 -4
-7 -7 -7 -6 -6 -7 -7 -6 -6 -6 -6 -6 -5 -5 -5 -5 -4 -4 -4 -5 -5 -6 -6 -5 -5 -5 -5 -5 -4 -4 -4 -5 -4 -4 -5 -4 -5 -5 -4 -5 -7 -7 -6 -6 -6
-7 -7 -7 -6 -6 -6 -7 -6 -6 -6 -6 -6 -5 -5 -5 -5 -4 -5 -5 -5 -5 -4 -4 -5 -4 -5 -4 -4 -6 -5 -5 -5 -5 -4 -5 -4 -5 -4 -4 -4 -6 -5 -7 -6 -7
-7 -7 -7 -6 -6 -7 -7 -6 -5 -6 -6 -6 -6 -5 -5 -6 -6 -5 -5 -3 -5 -3 -4 -4 -5 -5 -4 -4 -4 -5 -5 -5 -4 -4 -3 -4 -5 -5 -6 -5 -6 -7 -6 -7 -7
-7 -7 -7 -6 -6 -8 -7 -6 -6 -6 -6 -6 -6 -6 -6 -5 -5 -6 -5 -4 -5 -5 -5 -4 -5 -4 -4 -3 -4 -5 -5 -4 -4 -3 -3 -5 -6 -5 -6 -7 -6 -6 -7 -7 -7
-7 -7 -7 -6 -6 -7 -7 -6 -7 -6 -7 -6 -6 -6 -6 -6 -6 -6 -6 -4 -4 -4 -5 -5 -5 -6 -4 -4 -4 -4 -4 -5 -4 -4 -3 -4 -5 -5 -6 -7 -6 -6 -6 -7 -7
-8 -7 -7 -7 -6 -6 -6 -6 -7 -6 -5 -6 -6 -6 -6 -6 -6 -5 -5 -5 -5 -5 -4 -5 -5 -5 -6 -5 -5 -5 -5 -5 -4 -4 -4 -4 -5 -5 -6 -6 -6 -5 -6 -5 -5
-8 -8 -7 -7 -6 -7 -7 -7 -7 -7 -5 -5 -5 -6 -5 -5 -6 -5 -5 -6 -5 -6 -5 -6 -5 -5 -5 -5 -5 -4 -4 -5 -5 -5 -5 -5 -4 -5 -6 -6 -7 -5 -5 -5 -5
-8 -7 -7 -7 -7 -7 -8 -7 -8 -7 -6 -6 -5 -5 -5 -6 -5 -5 -5 -5 -5 -5 -5 -4 -5 -5 -5 -6 -6 -6 -6 -6 -6 -6 -5 -5 -5 -6 -6 -7 -7 -5 -5 -5 -5
-8 -8 -7 -7 -7 -8 -8 -7 -7 -6 -6 -5 -5 -6 -7 -6 -6 -6 -6 -6 -5 -4 -4 -5 -5 -6 -6 -6 -6 -6 -6 -6 -6 -6 -6 -6 -6 -6 -6 -6 -5 -5 -6 -6 -6
-8 -8 -8 -8 -7 -7 -7 -8 -7 -8 -7 -6 -5 -5 -5 -6 -6 -6 -6 -5 -5 -4 -4 -4 -5 -6 -6 -6 -6 -6 -6 -6 -6 -6 -6 -6 -6 -6 -6 -5 -5 -6 -6 -6 -5
-8 -8 -8 -8 -8 -7 -7 -8 -8 -8 -8 -6 -6 -7 -7 -6 -6 -6 -6 -6 -6 -5 -4 -6 -7 -7 -5 -6 -7 -7 -6 -7 -6 -6 -6 -6 -7 -7 -5 -5 -6 -7 -6 -5 -5
-7 -7 -7 -8 -8 -8 -8 -8 -8 -7 -8 -7 -8 -7 -7 -7 -6 -7 -7 -7 -6 -7 -7 -7 -7 -6 -6 -6 -6 -6 -6 -7 -7 -7 -7 -7 -7 -5 -6 -6 -6 -6 -6 -5 -6
Height
5887 5888 5888 5889 5889 5890 5892 5894 5897 5900 5902 5905 5907 5909 5911 5914 5915 5916 5918 5918 5918 5917 5918 5919 5920 5919 5918 5918 5917 5919 5919 5921 5924 5921 5922 5922 5922 5923 5922 5922 5921 5921 5921 5921 5921
5886 5887 5887 5888 5889 5890 5893 5896 5898 5901 5904 5906 5908 5910 5913 5914 5916 5918 5919 5919 5918 5918 5918 5919 5921 5921 5920 5923 5921 5923 5923 5922 5924 5923 5924 5926 5923 5924 5925 5923 5923 5923 5923 5923 5923
5885 5886 5886 5888 5888 5890 5893 5896 5899 5902 5905 5908 5910 5911 5913 5915 5917 5919 5920 5920 5919 5919 5920 5920 5922 5921 5923 5912 5909 5924 5924 5925 5928 5927 5927 5927 5926 5926 5925 5925 5924 5925 5925 5925 5925
5884 5885 5886 5887 5888 5891 5894 5897 5900 5903 5906 5909 5911 5913 5914 5917 5920 5919 5920 5920 5921 5921 5921 5923 5924 5923 5899 5927 5925 5928 5926 5930 5929 5930 5930 5928 5928 5928 5927 5927 5928 5927 5927 5926 5926
5883 5884 5885 5886 5888 5891 5894 5898 5901 5904 5907 5910 5912 5914 5916 5917 5918 5919 5920 5920 5921 5922 5923 5925 5926 5926 5927 5929 5927 5929 5932 5931 5930 5931 5931 5930 5929 5930 5928 5927 5927 5927 5927 5927 5927
5882 5883 5884 5886 5889 5892 5895 5899 5902 5905 5908 5911 5914 5916 5917 5918 5919 5920 5921 5919 5921 5923 5924 5925 5926 5928 5928 5927 5915 5929 5931 5933 5934 5931 5930 5929 5929 5929 5929 5926 5926 5927 5928 5928 5927
5881 5882 5883 5886 5889 5892 5896 5900 5903 5906 5910 5912 5915 5916 5917 5919 5920 5921 5920 5919 5920 5922 5924 5924 5926 5928 5930 5929 5931 5932 5931 5930 5929 5932 5930 5932 5933 5931 5930 5928 5927 5927 5928 5928 5928
5880 5881 5882 5886 5889 5893 5897 5901 5905 5908 5911 5913 5915 5917 5919 5920 5921 5923 5922 5922 5921 5923 5926 5927 5927 5927 5928 5930 5935 5932 5933 5931 5933 5933 5931 5935 5937 5930 5929 5929 5929 5929 5929 5928 5928
5879 5880 5882 5886 5889 5893 5897 5902 5906 5909 5911 5914 5916 5918 5920 5921 5923 5924 5924 5925 5925 5927 5927 5927 5926 5927 5928 5931 5931 5933 5932 5934 5927 5930 5931 5931 5929 5932 5925 5930 5930 5930 5930 5930 5929
5877 5879 5881 5886 5890 5893 5898 5903 5907 5910 5912 5914 5916 5920 5920 5922 5924 5926 5926 5927 5927 5925 5923 5924 5925 5922 5927 5930 5933 5938 5938 5938 5937 5937 5935 5934 5932 5928 5930 5932 5931 5931 5931 5931 5931
5876 5878 5881 5885 5889 5893 5898 5903 5908 5911 5912 5915 5918 5920 5921 5924 5926 5926 5928 5929 5929 5933 5922 5927 5932 5929 5929 5932 5938 5943 5946 5946 5944 5941 5939 5940 5935 5936 5935 5934 5934 5933 5933 5933 5933
5874 5877 5880 5885 5889 5893 5899 5904 5910 5913 5914 5914 5917 5920 5922 5924 5926 5925 5927 5930 5924 5922 5927 5928 5933 5933 5931 5936 5940 5937 5939 5945 5944 5941 5942 5942 5940 5940 5936 5936 5936 5936 5935 5934 5934
5872 5876 5879 5884 5889 5895 5901 5907 5909 5911 5914 5916 5918 5921 5923 5925 5926 5927 5928 5930 5928 5927 5931 5933 5934 5931 5935 5938 5945 5943 5940 5945 5945 5945 5944 5941 5939 5939 5938 5937 5937 5937 5936 5936 5935
5871 5874 5878 5883 5890 5895 5901 5906 5909 5912 5915 5917 5919 5921 5923 5926 5927 5930 5929 5931 5932 5930 5929 5937 5933 5933 5942 5938 5945 5944 5943 5947 5949 5944 5945 5946 5942 5938 5936 5936 5939 5936 5938 5938 5937
5869 5873 5877 5883 5889 5895 5901 5906 5910 5913 5916 5918 5919 5921 5924 5927 5928 5929 5930 5932 5933 5931 5934 5935 5935 5938 5947 5946 5944 5945 5942 5948 5946 5943 5939 5938 5941 5941 5943 5939 5935 5933 5934 5933 5934
5868 5872 5876 5882 5890 5897 5902 5906 5910 5915 5916 5918 5920 5922 5925 5927 5928 5930 5932 5933 5933 5934 5936 5939 5941 5941 5944 5944 5943 5945 5946 5947 5945 5944 5942 5944 5939 5939 5943 5940 5938 5936 5936 5934 5931
5867 5871 5875 5880 5888 5893 5899 5905 5911 5913 5918 5920 5921 5923 5925 5927 5928 5931 5933 5934 5933 5937 5935 5934 5937 5943 5945 5943 5945 5945 5946 5950 5949 5945 5945 5946 5942 5941 5944 5942 5941 5940 5939 5933 5933
5866 5871 5877 5884 5888 5893 5899 5905 5911 5915 5913 5917 5921 5923 5926 5929 5930 5929 5932 5932 5930 5936 5936 5935 5939 5941 5943 5943 5942 5944 5948 5949 5947 5951 5951 5946 5944 5942 5939 5938 5936 5941 5943 5942 5938
5866 5871 5876 5881 5887 5892 5899 5905 5911 5910 5906 5921 5923 5926 5927 5927 5932 5933 5934 5934 5924 5932 5932 5936 5936 5942 5941 5942 5944 5947 5948 5947 5949 5953 5951 5946 5939 5938 5937 5938 5938 5938 5939 5938 5937
5865 5870 5874 5880 5885 5892 5898 5903 5905 5906 5911 5918 5923 5926 5930 5929 5929 5934 5937 5933 5932 5923 5939 5937 5938 5942 5941 5942 5944 5945 5946 5949 5950 5950 5950 5944 5945 5941 5940 5939 5936 5936 5935 5934 5933
5864 5868 5874 5878 5884 5891 5898 5903 5909 5907 5912 5918 5921 5923 5928 5932 5932 5932 5930 5933 5932 5932 5935 5935 5935 5942 5941 5944 5945 5945 5944 5946 5948 5948 5950 5949 5942 5940 5938 5936 5934 5932 5930 5928 5926
5862 5867 5871 5877 5884 5889 5895 5900 5901 5907 5911 5916 5916 5912 5922 5927 5930 5929 5928 5926 5931 5934 5935 5939 5938 5939 5943 5942 5940 5941 5940 5943 5945 5946 5946 5946 5948 5939 5936 5933 5931 5927 5926 5923 5923
5861 5867 5871 5875 5882 5888 5894 5896 5900 5906 5909 5914 5917 5922 5916 5915 5917 5926 5920 5910 5929 5933 5930 5932 5940 5945 5945 5942 5941 5942 5941 5941 5942 5942 5944 5945 5948 5932 5933 5929 5925 5922 5921 5918 5916
5861 5866 5871 5876 5881 5885 5892 5897 5901 5904 5907 5910 5913 5917 5919 5917 5922 5928 5928 5924 5929 5928 5931 5933 5935 5939 5943 5936 5941 5941 5940 5939 5939 5939 5939 5940 5938 5934 5926 5924 5921 5920 5916 5912 5909
5861 5867 5871 5876 5880 5886 5888 5897 5900 5905 5906 5908 5912 5915 5918 5921 5925 5926 5928 5924 5924 5926 5927 5929 5930 5932 5933 5934 5935 5934 5935 5936 5937 5935 5933 5932 5931 5920 5918 5917 5916 5914 5909 5903 5898
5857 5857 5865 5872 5879 5883 5885 5891 5897 5904 5905 5907 5910 5915 5917 5920 5922 5925 5928 5927 5925 5924 5925 5926 5929 5929 5928 5930 5931 5930 5928 5928 5929 5929 5929 5929 5917 5911 5910 5911 5909 5905 5899 5893 5890
5853 5860 5867 5870 5876 5880 5885 5889 5894 5897 5899 5904 5907 5913 5919 5915 5911 5909 5923 5926 5927 5925 5925 5927 5926 5923 5924 5924 5924 5925 5927 5923 5922 5920 5919 5917 5909 5906 5906 5903 5901 5894 5890 5886 5883
Wind_Speed
3 3 4 11 13 12 13 17 18 22 23 21 19 17 15 12 11 9 8 7 8 9 8 10 8 13 13 16 20 16 23 17 4 5 8 8 9 7 7 5 5 6 6 6 4
3 3 5 12 15 14 14 17 20 24 23 21 20 17 15 12 10 8 9 8 9 7 6 12 8 13 10 17 11 12 17 9 7 6 7 10 2 5 3 1 0 1 2 3 4
3 4 6 14 16 15 15 17 22 24 23 21 20 16 14 12 10 11 10 8 9 9 7 15 10 16 13 2 11 10 7 8 11 8 4 3 5 8 4 1 5 4 4 2 1
4 5 8 16 16 17 16 19 24 24 22 21 19 16 13 11 11 12 9 8 8 9 11 14 18 15 9 13 12 4 8 7 7 8 6 5 1 4 3 3 4 6 6 5 4
5 6 10 16 16 17 17 23 25 23 22 20 18 16 13 12 13 10 7 7 8 9 11 11 11 10 4 9 8 5 5 2 4 3 5 6 6 5 6 4 4 5 7 6 4
6 6 11 17 17 17 20 25 25 24 22 20 18 15 12 13 12 8 2 2 8 10 10 9 11 8 8 7 5 7 2 2 6 7 4 6 2 4 7 6 6 7 5 4 3
7 6 12 18 18 18 23 27 25 23 21 19 18 14 15 14 10 7 9 10 14 15 12 9 7 7 8 9 9 7 1 2 8 8 4 10 3 5 6 9 8 6 5 2 1
8 7 14 19 19 21 26 27 24 20 19 19 17 15 16 12 12 10 16 16 18 18 13 8 7 7 11 11 10 3 6 8 7 10 13 10 7 6 6 9 8 6 4 4 4
10 8 15 20 20 23 27 26 22 19 19 18 16 16 15 14 13 13 15 13 14 15 13 13 16 15 14 12 11 15 5 15 14 14 12 17 20 8 15 7 7 5 3 2 3
12 10 17 21 22 26 27 24 21 20 18 17 18 19 17 16 12 11 10 10 10 12 17 18 17 14 18 20 18 18 19 18 18 15 18 18 20 16 12 9 6 4 3 3 4
14 12 17 23 24 27 26 24 22 21 18 17 18 18 15 14 12 14 11 9 6 5 18 14 9 18 22 21 21 12 6 3 11 12 14 11 15 15 15 11 12 11 13 12 10
16 14 19 26 27 27 25 22 18 16 16 17 19 17 14 14 12 14 8 7 11 6 5 14 13 16 18 17 7 12 11 5 3 12 15 2 10 5 13 12 11 8 6 8 9
18 16 21 27 28 27 24 21 20 16 15 16 17 17 15 13 12 12 7 5 6 10 6 17 16 18 14 9 6 3 11 2 5 7 9 4 6 15 8 12 13 11 9 8 7
19 18 23 29 30 28 25 23 19 14 13 15 15 14 13 13 13 12 7 6 10 7 13 11 12 15 12 14 6 8 10 7 7 12 10 3 3 10 6 13 12 4 11 10 12
20 20 24 29 31 29 28 23 17 14 11 14 15 15 12 11 12 11 5 6 8 5 0 10 7 12 1 8 4 8 9 5 8 21 4 16 16 17 20 18 17 15 18 22 28
22 22 25 31 31 28 25 23 18 16 5 8 12 12 8 6 7 10 5 4 9 11 6 8 10 9 1 0 9 13 13 3 7 14 13 15 16 11 21 14 7 10 14 23 30
23 24 28 35 34 33 30 23 19 15 4 8 9 12 9 5 5 5 6 5 5 8 7 8 8 4 1 15 4 4 5 10 8 8 9 19 5 19 17 18 9 7 12 21 19
24 26 29 31 32 30 27 25 19 8 11 6 13 11 5 2 0 6 2 5 6 4 10 5 8 6 3 10 11 2 5 8 14 12 19 8 6 13 18 13 11 1 13 17 18
25 27 31 34 31 30 28 24 21 11 6 8 12 9 6 16 13 8 4 14 14 9 20 8 11 5 2 4 7 2 6 6 3 8 6 8 8 10 10 8 12 7 8 14 12
26 27 29 32 32 31 28 27 22 4 15 17 8 12 9 12 8 8 6 10 4 13 14 9 5 1 8 3 3 5 6 7 2 11 2 14 14 7 11 7 16 29 18 18 23
25 27 28 30 32 31 28 26 5 19 18 19 12 14 14 13 14 12 23 11 3 7 10 6 13 3 3 2 6 12 3 4 6 4 7 8 17 16 7 18 29 30 21 23 23
26 27 29 28 31 29 31 27 23 19 20 19 23 10 10 24 10 16 11 21 8 8 7 3 12 18 13 11 18 16 7 3 6 5 7 9 8 8 16 16 14 23 21 23 21
27 24 26 28 30 31 33 23 14 22 18 22 19 15 17 30 26 13 13 13 9 11 13 12 7 3 9 9 11 6 7 8 10 8 7 8 7 26 16 14 22 34 25 29 30
26 25 24 23 27 32 29 30 13 15 20 22 24 23 16 7 2 18 12 12 14 14 7 6 16 5 5 19 6 12 13 14 11 12 12 12 18 23 28 30 37 26 30 34 36
24 23 21 21 26 25 31 17 17 12 16 19 20 19 14 13 7 9 7 18 15 10 11 10 9 11 14 16 14 15 15 14 15 17 18 18 18 30 32 32 28 32 36 40 41
31 32 31 26 22 23 27 24 23 13 17 18 17 9 11 8 15 2 6 7 11 16 10 6 8 17 14 10 11 16 19 19 16 17 13 13 26 34 34 31 34 36 41 45 46
34 28 23 25 21 21 21 23 25 16 12 21 14 10 10 20 26 20 9 9 5 10 9 7 11 17 12 15 16 12 10 16 19 22 18 16 30 36 34 35 36 41 46 48 45
Wind_Direction
246 236 200 188 182 183 180 179 170 163 164 163 162 173 168 162 151 126 113 116 100 110 108 134 110 110 115 101 86 104 119 120 22 136 114 112 97 77 75 80 95 83 73 81 88
232 226 200 188 184 183 181 178 167 165 163 165 166 173 168 167 153 131 129 125 109 99 98 133 136 119 124 108 83 80 104 92 139 108 86 104 113 98 92 54 359 70 104 80 79
219 216 198 188 187 186 180 175 167 165 166 169 169 169 169 163 155 144 142 121 97 96 113 137 122 119 104 51 139 39 86 100 70 85 360 62 59 85 305 331 353 316 328 324 308
210 210 196 190 189 183 176 172 168 165 170 172 172 169 166 165 153 145 144 137 115 107 126 132 125 118 318 107 78 56 80 64 64 78 4 91 139 284 4 26 5 330 336 348 340
206 208 198 193 186 179 173 168 170 167 174 173 172 170 170 166 154 150 158 155 150 128 132 141 147 132 91 108 126 85 76 355 53 10 8 33 32 344 360 354 321 317 325 335 340
204 210 200 192 181 175 171 168 172 170 175 173 171 170 162 159 158 146 165 161 172 159 142 137 144 140 126 134 195 127 116 121 20 10 344 360 70 46 31 29 356 350 328 318 342
206 212 198 190 180 172 170 171 175 173 176 174 173 166 159 161 151 138 92 116 156 159 150 147 137 133 120 105 81 72 200 263 77 6 324 22 26 9 32 27 19 7 7 360 311
206 210 195 186 178 172 172 174 177 176 178 176 175 162 163 151 141 132 116 118 129 148 145 118 115 139 136 117 76 360 40 337 43 23 19 55 223 28 79 47 40 28 24 44 62
207 208 195 182 178 174 175 176 178 173 179 177 174 169 165 147 144 127 115 133 123 118 115 110 124 107 119 119 177 80 76 1 37 17 14 18 4 32 46 45 7 9 11 43 71
205 206 193 182 177 177 176 177 176 175 181 179 177 175 173 157 144 140 141 131 121 142 141 129 134 93 118 106 48 58 33 24 359 21 44 5 352 29 24 1 6 357 353 337 343
204 205 191 181 180 179 176 180 175 180 181 180 178 170 176 158 161 163 147 138 141 118 155 156 125 104 102 81 75 14 33 29 358 58 78 30 29 53 32 31 44 48 48 40 47
202 201 189 182 182 177 180 181 177 178 181 181 176 173 172 160 165 149 133 147 185 141 354 122 113 102 94 98 105 172 149 323 10 80 57 186 84 351 20 23 16 17 39 56 48
198 197 190 183 179 174 178 175 173 179 184 182 178 183 182 172 162 151 162 159 194 354 103 134 129 112 81 224 127 136 106 25 345 31 72 20 344 345 20 26 4 355 9 19 25
194 194 191 184 177 174 176 171 173 177 185 184 185 191 192 168 159 168 166 164 117 269 75 162 106 93 71 299 327 83 104 42 348 304 68 149 287 305 360 341 11 13 19 360 356
191 193 189 182 177 178 173 170 169 170 150 196 192 190 188 176 167 193 191 174 150 134 180 67 66 108 290 280 297 24 89 87 290 281 146 212 229 327 347 328 346 343 358 348 341
190 189 185 180 174 175 176 171 170 165 185 196 196 194 186 176 170 173 195 180 159 149 161 100 41 83 33 180 142 111 53 360 298 347 53 14 4 322 336 317 177 272 325 336 332
187 185 181 179 180 181 173 173 170 178 96 208 214 201 194 193 191 163 184 134 118 18 101 158 183 59 348 128 195 341 320 20 11 320 39 356 15 296 319 344 350 21 5 319 327
186 186 183 179 183 184 178 175 170 123 140 104 218 212 190 122 235 263 137 64 316 25 354 84 131 140 300 163 156 12 24 299 1 3 335 17 265 323 332 345 359 251 244 235 284
185 186 188 188 189 182 187 174 156 179 196 168 202 210 182 219 182 201 177 255 282 113 310 92 114 311 6 147 160 313 10 230 3 311 258 288 297 293 37 34 277 326 336 329 304
186 189 192 191 192 186 189 173 178 263 176 186 166 190 206 255 260 219 201 272 320 108 246 243 139 109 12 4 335 224 34 11 350 317 53 326 308 304 290 220 269 318 300 287 284
189 191 192 194 192 189 185 184 231 234 210 192 170 203 172 228 246 170 216 220 286 291 214 283 171 314 345 97 192 321 292 245 257 256 307 289 296 301 260 288 312 311 295 297 297
192 191 193 195 195 185 180 174 199 220 194 191 195 206 190 207 210 219 242 229 190 213 151 351 323 40 5 319 300 307 291 295 271 297 258 295 322 295 295 320 300 296 302 298 305
198 197 196 195 193 183 188 175 252 213 190 195 202 184 228 243 176 239 283 201 227 229 210 200 155 316 234 248 328 67 310 335 334 322 288 274 257 314 281 301 294 296 305 309 308
194 196 202 199 194 182 192 205 208 211 217 205 199 200 217 311 60 216 270 285 275 246 255 221 186 203 273 306 293 281 302 305 293 274 268 270 276 279 275 278 281 304 306 305 302
193 198 195 198 197 203 192 193 213 201 227 218 215 224 226 217 238 227 217 272 277 250 242 235 245 240 244 236 262 268 283 298 293 292 279 279 287 273 273 279 290 305 302 302 301
198 196 188 195 199 198 200 179 198 200 234 218 211 213 222 233 222 186 239 274 293 301 275 275 283 300 300 315 310 275 265 275 293 297 294 277 269 269 278 298 300 299 299 301 306
205 204 196 195 197 203 201 194 187 204 195 193 196 196 202 220 234 135 193 192 267 260 284 310 244 249 273 262 279 324 330 294 258 256 255 248 255 278 297 294 298 294 295 298 300